SWA402 MBPV-KMCO

Flight info

Callsign SWA402
Flight time N/A
Altitude 38000
Route SUMAC DCT OCTAL MUNGI1
Aircraft B738/M-SDE2E3FGHIRWXY/LB1

Departure

Time 2026-05-01 14:39
Airport Providenciales International Airport (MBPV)

Arrival

Time N/A
Airport Orlando International Airport (KMCO)
Time Latitude Longitude Altitude Speed Heading
2026-05-01 14:22 21.77626 -72.27306 12 ft 0 kts 68°
2026-05-01 14:33 21.77624 -72.27310 12 ft 2 kts 62°
2026-05-01 14:33 21.77617 -72.27317 13 ft 3 kts 19°
2026-05-01 14:33 21.77600 -72.27327 14 ft 3 kts 37°
2026-05-01 14:33 21.77584 -72.27340 12 ft 3 kts 37°
2026-05-01 14:34 21.77567 -72.27353 12 ft 3 kts 37°
2026-05-01 14:34 21.77551 -72.27367 14 ft 3 kts 40°
2026-05-01 14:34 21.77536 -72.27381 12 ft 3 kts 50°
2026-05-01 14:34 21.77526 -72.27398 14 ft 3 kts 79°
2026-05-01 14:35 21.77525 -72.27406 15 ft 0 kts 92°
2026-05-01 14:36 21.77537 -72.27402 13 ft 5 kts
2026-05-01 14:36 21.77550 -72.27432 13 ft 11 kts 243°
2026-05-01 14:37 21.77462 -72.27462 13 ft 19 kts 188°
2026-05-01 14:37 21.77407 -72.27604 13 ft 28 kts 270°
2026-05-01 14:37 21.77422 -72.27812 15 ft 24 kts 274°
2026-05-01 14:37 21.77430 -72.27984 15 ft 23 kts 273°
2026-05-01 14:38 21.77471 -72.28138 16 ft 19 kts 307°
2026-05-01 14:38 21.77435 -72.28199 17 ft 7 kts 115°
2026-05-01 14:38 21.77430 -72.28045 15 ft 51 kts 93°
2026-05-01 14:38 21.77402 -72.27412 13 ft 117 kts 93°
2026-05-01 14:39 21.77362 -72.26346 98 ft 158 kts 89°
2026-05-01 14:39 21.77303 -72.25217 786 ft 157 kts 91°
2026-05-01 14:39 21.77242 -72.23987 1326 ft 173 kts 93°
2026-05-01 14:39 21.77161 -72.22671 2160 ft 178 kts 94°
2026-05-01 14:40 21.77088 -72.21332 2968 ft 183 kts 95°
2026-05-01 14:40 21.77003 -72.19935 3570 ft 198 kts 91°
2026-05-01 14:40 21.77437 -72.18449 3770 ft 228 kts 52°
2026-05-01 14:40 21.78819 -72.17500 4108 ft 251 kts 15°
2026-05-01 14:41 21.80597 -72.17412 4681 ft 264 kts 357°
2026-05-01 14:41 21.82482 -72.17555 5198 ft 279 kts 356°
2026-05-01 14:41 21.84422 -72.17728 6044 ft 279 kts 355°
2026-05-01 14:41 21.86365 -72.17896 6823 ft 283 kts 355°
2026-05-01 14:42 21.88337 -72.18055 7575 ft 285 kts 356°
2026-05-01 14:42 21.90319 -72.18202 8382 ft 285 kts 356°
2026-05-01 14:42 21.92305 -72.18340 9193 ft 286 kts 356°
2026-05-01 14:42 21.94298 -72.18475 10007 ft 288 kts 356°
2026-05-01 14:43 21.96337 -72.18611 10462 ft 302 kts 356°
2026-05-01 14:43 21.98454 -72.18965 10624 ft 324 kts 339°
2026-05-01 14:43 22.00402 -72.20352 10775 ft 346 kts 312°
2026-05-01 14:43 22.01762 -72.22558 11037 ft 361 kts 300°
2026-05-01 14:44 22.02978 -72.24919 11540 ft 367 kts 299°
2026-05-01 14:44 22.05464 -72.29801 12661 ft 375 kts 299°
2026-05-01 14:44 22.06738 -72.32267 13332 ft 376 kts 299°
2026-05-01 14:45 22.08020 -72.34728 14021 ft 376 kts 299°
2026-05-01 14:45 22.10620 -72.39693 14930 ft 386 kts 299°
2026-05-01 14:45 22.11948 -72.42227 15492 ft 387 kts 300°
2026-05-01 14:46 22.13274 -72.44746 16140 ft 386 kts 301°
2026-05-01 14:46 22.16347 -72.49572 17095 ft 394 kts 306°
2026-05-01 14:46 22.17994 -72.51943 17628 ft 396 kts 307°
2026-05-01 14:47 22.19660 -72.54329 18131 ft 399 kts 307°
2026-05-01 14:47 22.21328 -72.56734 18575 ft 401 kts 306°
2026-05-01 14:47 22.23000 -72.59167 18958 ft 405 kts 306°
2026-05-01 14:48 22.26361 -72.64112 19693 ft 412 kts 306°
2026-05-01 14:48 22.28057 -72.66625 20055 ft 415 kts 306°
2026-05-01 14:48 22.31451 -72.71667 20859 ft 419 kts 306°
2026-05-01 14:49 22.34906 -72.76810 21539 ft 426 kts 305°
2026-05-01 14:49 22.38421 -72.82047 22133 ft 434 kts 306°
2026-05-01 14:50 22.40782 -72.85568 22577 ft 437 kts 306°
2026-05-01 14:50 22.45583 -72.92733 23295 ft 447 kts 305°
2026-05-01 14:51 22.47408 -72.95460 23601 ft 449 kts 305°
2026-05-01 14:51 22.51068 -73.00929 24257 ft 449 kts 305°
2026-05-01 14:52 22.54712 -73.06383 24913 ft 448 kts 305°
2026-05-01 14:52 22.56544 -73.09127 25140 ft 451 kts 305°
2026-05-01 14:52 22.60229 -73.14650 25668 ft 453 kts 306°
2026-05-01 14:53 22.62079 -73.17425 25938 ft 455 kts 306°
2026-05-01 14:53 22.63932 -73.20206 26203 ft 456 kts 306°
2026-05-01 14:53 22.65789 -73.22994 26465 ft 457 kts 306°
2026-05-01 14:53 22.67649 -73.25788 26723 ft 458 kts 306°
2026-05-01 14:54 22.69514 -73.28593 26981 ft 459 kts 306°
2026-05-01 14:54 22.71385 -73.31406 27235 ft 460 kts 306°
2026-05-01 14:54 22.73256 -73.34221 27499 ft 461 kts 306°
2026-05-01 14:54 22.75135 -73.37051 27736 ft 463 kts 306°
2026-05-01 14:55 22.77017 -73.39887 27974 ft 464 kts 306°
2026-05-01 14:55 22.78878 -73.42691 28205 ft 465 kts 306°
2026-05-01 14:55 22.80770 -73.45544 28439 ft 466 kts 306°
2026-05-01 14:55 22.82664 -73.48402 28674 ft 467 kts 306°
2026-05-01 14:56 22.84564 -73.51270 28951 ft 467 kts 306°
2026-05-01 14:56 22.86455 -73.54127 29338 ft 465 kts 306°
2026-05-01 14:56 22.88335 -73.56968 29751 ft 462 kts 306°
2026-05-01 14:56 22.90202 -73.59794 30161 ft 460 kts 306°
2026-05-01 14:57 22.92060 -73.62606 30453 ft 459 kts 306°
2026-05-01 14:57 22.95796 -73.68261 30893 ft 461 kts 305°
2026-05-01 14:57 22.97641 -73.71057 31148 ft 461 kts 305°
2026-05-01 14:58 22.98897 -73.72962 31357 ft 460 kts 305°
2026-05-01 14:58 23.01362 -73.76701 31777 ft 458 kts 305°
2026-05-01 14:58 23.03217 -73.79517 32052 ft 458 kts 305°
2026-05-01 14:58 23.05070 -73.82331 32318 ft 458 kts 305°
2026-05-01 14:59 23.06324 -73.84235 32513 ft 458 kts 305°
2026-05-01 14:59 23.08151 -73.87014 32805 ft 457 kts 305°
2026-05-01 14:59 23.10000 -73.89825 33095 ft 456 kts 305°
2026-05-01 14:59 23.11845 -73.92633 33358 ft 456 kts 305°
2026-05-01 15:00 23.15530 -73.98244 33913 ft 455 kts 304°
2026-05-01 15:00 23.17365 -74.01041 34186 ft 454 kts 304°
2026-05-01 15:00 23.19200 -74.03840 34427 ft 453 kts 304°
2026-05-01 15:01 23.21024 -74.06623 34710 ft 451 kts 304°
2026-05-01 15:01 23.22838 -74.09393 35004 ft 449 kts 305°
2026-05-01 15:01 23.24646 -74.12155 35273 ft 447 kts 305°
2026-05-01 15:01 23.26445 -74.14904 35581 ft 444 kts 304°
2026-05-01 15:02 23.28228 -74.17631 35929 ft 441 kts 305°
2026-05-01 15:02 23.29402 -74.19426 36115 ft 439 kts 305°
2026-05-01 15:02 23.31767 -74.23047 36393 ft 438 kts 305°
2026-05-01 15:02 23.33534 -74.25754 36599 ft 438 kts 305°
2026-05-01 15:03 23.35294 -74.28451 36840 ft 436 kts 305°
2026-05-01 15:03 23.37045 -74.31135 37100 ft 434 kts 305°
2026-05-01 15:03 23.38787 -74.33809 37329 ft 433 kts 305°
2026-05-01 15:03 23.40527 -74.36479 37515 ft 432 kts 305°
2026-05-01 15:04 23.42245 -74.39117 37725 ft 431 kts 305°
2026-05-01 15:04 23.43975 -74.41776 37950 ft 429 kts 305°
2026-05-01 15:04 23.45699 -74.44427 38028 ft 430 kts 305°
2026-05-01 15:05 23.49167 -74.49762 38028 ft 431 kts 305°
2026-05-01 15:05 23.52615 -74.55072 38034 ft 428 kts 305°
2026-05-01 15:06 23.56041 -74.60354 38033 ft 425 kts 305°
2026-05-01 15:06 23.59446 -74.65608 38035 ft 423 kts 305°
2026-05-01 15:07 23.62836 -74.70847 38049 ft 422 kts 305°
2026-05-01 15:07 23.66200 -74.76049 38035 ft 422 kts 304°
2026-05-01 15:08 23.69584 -74.81287 38037 ft 423 kts 304°
2026-05-01 15:08 23.72975 -74.86543 38036 ft 424 kts 304°
2026-05-01 15:09 23.76371 -74.91811 38038 ft 425 kts 304°
2026-05-01 15:09 23.79779 -74.97104 38037 ft 426 kts 304°
2026-05-01 15:10 23.83192 -75.02409 38037 ft 427 kts 304°
2026-05-01 15:10 23.88302 -75.10363 38040 ft 429 kts 304°
2026-05-01 15:11 23.93444 -75.18381 38036 ft 429 kts 304°
2026-05-01 15:12 23.96868 -75.23727 38034 ft 429 kts 304°
2026-05-01 15:12 24.02000 -75.31750 38034 ft 429 kts 304°
2026-05-01 15:14 24.10515 -75.45090 38036 ft 426 kts 304°
2026-05-01 15:14 24.15595 -75.53067 38036 ft 425 kts 304°
2026-05-01 15:15 24.22345 -75.63684 38035 ft 424 kts 304°
2026-05-01 15:16 24.29042 -75.74242 38036 ft 423 kts 304°
2026-05-01 15:18 24.37437 -75.87508 38038 ft 423 kts 303°
2026-05-01 15:19 24.44124 -75.98100 38040 ft 424 kts 303°
2026-05-01 15:19 24.49153 -76.06082 38035 ft 424 kts 303°
2026-05-01 15:20 24.54182 -76.14077 38036 ft 424 kts 303°